GW3806 Weather Reports


time (UTC)temp
C
wind
direction
speed
KPH
gust
KPH
rain 1hr
cm
rain 24hr
cm
rain mn
cm
humidity
%
barometer
mb
20260502190822 15 233 4.8 12.9 0.00 0.00 0.00 33 1018.9
20260502190319 16 286 8.0 8.0 0.00 0.00 0.00 32 1019.1
20260502185814 16 255 4.8 12.9 0.00 0.00 0.00 33 1019.1
20260502185310 15 248 3.2 12.9 0.00 0.00 0.00 29 1019.1
20260502184808 16 244 24.1 25.7 0.00 0.00 0.00 31 1019.0
20260502184303 16 266 8.0 25.7 0.00 0.00 0.00 33 1019.0
20260502183800 17 277 6.4 14.5 0.00 0.00 0.00 34 1019.1
20260502183256 16 239 4.8 25.7 0.00 0.00 0.00 33 1019.1
20260502182751 16 218 9.7 19.3 0.00 0.00 0.00 35 1019.3
20260502182247 16 254 11.3 16.1 0.00 0.00 0.00 31 1019.3
20260502181743 16 230 8.0 29.0 0.00 0.00 0.00 33 1019.3
20260502181237 16 261 6.4 25.7 0.00 0.00 0.00 31 1019.4
20260502180734 15 221 6.4 19.3 0.00 0.00 0.00 31 1019.4
20260502180231 16 249 6.4 24.1 0.00 0.00 0.00 35 1019.4
20260502170150 16 81 6.4 9.7 0.00 0.00 0.00 36 1019.5
20260502164137 16 216 8.0 8.0 0.00 0.00 0.00 37 1019.9
20260502163632 15 220 4.8 12.9 0.00 0.00 0.00 39 1019.6
20260502163129 15 180 3.2 8.0 0.00 0.00 0.00 37 1019.8
20260502162626 15 258 3.2 8.0 0.00 0.00 0.00 38 1019.9
20260502162123 14 216 6.4 11.3 0.00 0.00 0.00 36 1019.8
20260502161620 15 176 3.2 9.7 0.00 0.00 0.00 36 1019.6
20260502161118 14 250 4.8 8.0 0.00 0.00 0.00 36 1019.8
20260502160615 13 247 4.8 11.3 0.00 0.00 0.00 35 1019.6
20260502160113 13 251 3.2 8.0 0.00 0.00 0.00 34 1019.6
20260502152028 13 143 4.8 6.4 0.00 0.00 0.00 39 1019.4
20260502151524 13 225 0.0 4.8 0.00 0.00 0.00 40 1019.6
20260502151022 13 324 3.2 6.4 0.00 0.00 0.00 40 1019.5
20260502150520 14 243 3.2 3.2 0.00 0.00 0.00 40 1019.5
20260502130404 4 96 11.3 27.4 0.00 0.00 0.00 55 1018.7
20260502123347 3 90 0.0 19.3 0.00 0.00 0.00 55 1018.8
20260502122844 3 107 0.0 16.1 0.00 0.00 0.00 56 1018.5
20260502122339 2 96 9.7 22.5 0.00 0.00 0.00 60 1018.7
20260502121838 3 75 11.3 27.4 0.00 0.00 0.00 58 1018.8
20260502121335 3 78 9.7 22.5 0.00 0.00 0.00 56 1019.0
20260502120832 2 79 11.3 19.3 0.00 0.00 0.00 59 1018.8
20260502120328 3 86 8.0 20.9 0.00 0.00 0.00 55 1018.8
20260502115826 2 118 14.5 20.9 0.00 0.00 0.00 59 1018.9
20260502115323 3 101 11.3 17.7 0.00 0.00 0.00 56 1018.7
20260502114819 3 132 6.4 22.5 0.00 0.00 0.00 56 1018.8
20260502114316 2 94 8.0 20.9 0.00 0.00 0.00 60 1018.8
20260502113813 2 90 9.7 17.7 0.00 0.00 0.00 60 1018.9
20260502113311 2 99 12.9 25.7 0.00 0.00 0.00 59 1019.0
20260502112809 2 104 8.0 16.1 0.00 0.00 0.00 59 1018.8
20260502112306 3 84 12.9 24.1 0.00 0.00 0.00 59 1019.0
20260502111803 3 83 12.9 25.7 0.00 0.00 0.00 59 1019.0
20260502111301 3 86 12.9 25.7 0.00 0.00 0.00 60 1019.0
20260502110758 3 102 9.7 20.9 0.00 0.00 0.00 59 1019.0
20260502110256 2 100 14.5 20.9 0.00 0.00 0.00 61 1019.0
20260502105754 2 110 14.5 24.1 0.00 0.00 0.00 61 1019.1
20260502105249 2 119 14.5 20.9 0.00 0.00 0.00 60 1019.0
20260502104748 2 115 8.0 19.3 0.00 0.00 0.00 62 1019.1
20260502104245 2 116 19.3 19.3 0.00 0.00 0.00 63 1019.3
20260502103742 3 96 6.4 17.7 0.00 0.00 0.00 60 1019.0
20260502103240 3 109 8.0 19.3 0.00 0.00 0.00 56 1019.0
20260502102736 3 0 4.8 14.5 0.00 0.00 0.00 56 1018.9
20260502102233 3 111 4.8 14.5 0.00 0.00 0.00 58 1019.0
20260502101731 3 46 9.7 20.9 0.00 0.00 0.00 57 1018.9
20260502101229 3 79 8.0 17.7 0.00 0.00 0.00 57 1019.0
20260502100727 3 81 6.4 14.5 0.00 0.00 0.00 57 1019.0
20260502100225 3 98 8.0 20.9 0.00 0.00 0.00 59 1019.0
20260502091159 3 143 6.4 11.3 0.00 0.00 0.00 57 1019.1
20260502090656 4 94 8.0 12.9 0.00 0.00 0.00 56 1019.3
20260502090153 4 109 6.4 14.5 0.00 0.00 0.00 57 1019.0
20260502071049 5 23 6.4 20.9 0.00 0.00 0.00 57 1019.4
20260502070547 5 93 6.4 19.3 0.00 0.00 0.00 57 1019.4
20260502070045 4 102 3.2 11.3 0.00 0.00 0.00 58 1019.4
20260502065544 4 90 8.0 17.7 0.00 0.00 0.00 58 1019.6
20260502065040 4 36 6.4 19.3 0.00 0.00 0.00 58 1019.4
20260502064539 4 90 4.8 17.7 0.00 0.00 0.00 58 1019.5
20260502064035 5 109 8.0 17.7 0.00 0.00 0.00 57 1019.6
20260502063533 5 78 14.5 30.6 0.00 0.00 0.00 57 1019.5
20260502063031 5 98 14.5 16.1 0.00 0.00 0.00 56 1019.3
20260502062527 5 3 8.0 19.3 0.00 0.00 0.00 56 1019.5
20260502062026 5 93 11.3 22.5 0.00 0.00 0.00 58 1019.5
20260502061523 5 77 11.3 19.3 0.00 0.00 0.00 58 1019.3
20260502061015 5 98 11.3 17.7 0.00 0.00 0.00 58 1019.4
20260502060510 4 67 4.8 17.7 0.00 0.00 0.00 59 1019.5
20260502060007 5 90 8.0 14.5 0.00 0.00 0.00 58 1019.3
20260502055504 5 85 12.9 27.4 0.00 0.00 0.00 58 1019.3
20260502055004 5 71 11.3 19.3 0.00 0.00 0.00 57 1019.3
20260502054502 5 75 9.7 14.5 0.00 0.00 0.00 57 1019.4
20260502053958 5 83 4.8 12.9 0.00 0.00 0.00 57 1019.4
20260502053455 5 68 6.4 14.5 0.00 0.00 0.00 56 1019.5
20260502052953 5 64 6.4 17.7 0.00 0.00 0.00 56 1019.3
20260502052451 5 70 8.0 14.5 0.00 0.00 0.00 56 1019.3
20260502051949 5 97 8.0 16.1 0.00 0.00 0.00 55 1019.3
20260502051447 5 11 3.2 17.7 0.00 0.00 0.00 56 1019.3
20260502050944 5 77 4.8 14.5 0.00 0.00 0.00 56 1019.3
20260502050440 5 108 11.3 16.1 0.00 0.00 0.00 56 1019.4
20260502045938 5 346 1.6 17.7 0.00 0.00 0.00 56 1019.6
20260502045434 5 63 9.7 20.9 0.00 0.00 0.00 57 1019.6
20260502044931 5 57 4.8 19.3 0.00 0.00 0.00 57 1019.5
20260502044427 6 95 6.4 20.9 0.00 0.00 0.00 56 1019.6
20260502043924 5 82 3.2 16.1 0.00 0.00 0.00 56 1019.6
20260502043422 5 80 3.2 19.3 0.00 0.00 0.00 57 1019.5
20260502042921 5 72 8.0 16.1 0.00 0.00 0.00 57 1019.8
20260502042419 5 60 9.7 11.3 0.00 0.00 0.00 57 1019.8
20260502041915 6 90 9.7 17.7 0.00 0.00 0.00 57 1019.5
20260502041414 6 90 1.6 16.1 0.00 0.00 0.00 56 1019.6
20260502040910 6 109 4.8 11.3 0.00 0.00 0.00 56 1019.6
20260502040407 6 84 14.5 17.7 0.00 0.00 0.00 55 1019.4
20260502035903 6 85 9.7 19.3 0.00 0.00 0.00 55 1019.4
20260502035400 6 0 0.0 12.9 0.00 0.00 0.00 53 1019.4
20260502034857 6 80 8.0 8.0 0.00 0.00 0.00 55 1019.5
20260502034356 6 23 1.6 16.1 0.00 0.00 0.00 55 1019.4
20260502033854 6 100 6.4 20.9 0.00 0.00 0.00 56 1019.3
20260502033351 7 79 9.7 11.3 0.00 0.00 0.00 55 1019.4
20260502032847 7 112 4.8 17.7 0.00 0.00 0.00 53 1019.4
20260502032344 7 110 6.4 14.5 0.00 0.00 0.00 55 1019.3
20260502031841 7 58 4.8 19.3 0.00 0.00 0.00 55 1019.0
20260502031340 7 83 8.0 17.7 0.00 0.00 0.00 55 1019.0
20260502030838 7 64 4.8 20.9 0.00 0.00 0.00 55 1018.9
20260502030336 7 84 9.7 14.5 0.00 0.00 0.00 55 1019.0
20260502025832 7 84 12.9 17.7 0.00 0.00 0.00 55 1018.9
20260502025330 7 350 0.0 12.9 0.00 0.00 0.00 55 1018.9
20260502024828 7 77 4.8 11.3 0.00 0.00 0.00 55 1018.8
20260502024325 7 157 1.6 6.4 0.00 0.00 0.00 54 1018.9
20260502023823 8 95 3.2 11.3 0.00 0.00 0.00 54 1018.8
20260502023321 8 32 0.0 9.7 0.00 0.00 0.00 52 1018.9
20260502022819 9 11 1.6 6.4 0.00 0.00 0.00 51 1018.8
20260502022315 10 103 1.6 3.2 0.00 0.00 0.00 49 1018.8
20260502021811 10 84 1.6 4.8 0.00 0.00 0.00 47 1018.7
20260502021309 10 33 0.0 0.0 0.00 0.00 0.00 44 1018.7
20260502020806 11 15 0.0 1.6 0.00 0.00 0.00 44 1018.7
20260502020303 11 282 0.0 1.6 0.00 0.00 0.00 44 1018.7
20260502015800 11 59 0.0 3.2 0.00 0.00 0.00 42 1018.5
20260502015257 12 90 0.0 3.2 0.00 0.00 0.00 40 1018.9
20260502014755 12 282 1.6 4.8 0.00 0.00 0.00 41 1018.7
20260502014251 13 307 4.8 8.0 0.00 0.00 0.00 38 1018.7
20260502013747 13 294 4.8 8.0 0.00 0.00 0.00 36 1018.8
20260502013243 13 297 4.8 4.8 0.00 0.00 0.00 39 1018.7
20260502012740 14 342 0.0 3.2 0.00 0.00 0.00 33 1018.7
20260502012238 15 0 6.4 6.4 0.00 0.00 0.00 32 1018.8
20260502011735 15 346 1.6 3.2 0.00 0.00 0.00 34 1018.8
20260502011231 15 270 4.8 8.0 0.00 0.00 0.00 33 1018.8
20260502010729 15 270 0.0 4.8 0.00 0.00 0.00 33 1018.7
20260502010224 15 283 6.4 9.7 0.00 0.00 0.00 32 1018.8
20260502005722 16 237 3.2 8.0 0.00 0.00 0.00 31 1018.5
20260502005220 15 258 4.8 9.7 0.00 0.00 0.00 31 1018.7
20260502004716 16 254 4.8 8.0 0.00 0.00 0.00 34 1018.5
20260502004212 16 286 3.2 6.4 0.00 0.00 0.00 32 1018.5
20260502003710 16 286 3.2 3.2 0.00 0.00 0.00 33 1018.7
20260502003208 16 342 0.0 4.8 0.00 0.00 0.00 31 1018.5
20260502002703 16 3 3.2 9.7 0.00 0.00 0.00 33 1018.7
20260502002201 16 283 6.4 8.0 0.00 0.00 0.00 35 1018.7
20260502001658 16 304 6.4 8.0 0.00 0.00 0.00 37 1018.7
20260502001155 15 359 6.4 9.7 0.00 0.00 0.00 32 1018.4
20260502000653 16 240 0.0 4.8 0.00 0.00 0.00 32 1018.7
20260502000151 16 265 6.4 9.7 0.00 0.00 0.00 31 1018.8
20260501235646 16 278 4.8 11.3 0.00 0.00 0.00 33 1018.7
20260501235143 16 278 11.3 11.3 0.00 0.00 0.00 35 1018.7
20260501234638 16 211 4.8 9.7 0.00 0.00 0.00 31 1018.4
20260501234136 15 249 6.4 9.7 0.00 0.00 0.00 33 1018.5
20260501233634 15 250 8.0 11.3 0.00 0.00 0.00 32 1018.4
20260501233131 15 283 6.4 8.0 0.00 0.00 0.00 35 1018.3
20260501232627 15 279 11.3 19.3 0.00 0.00 0.00 34 1018.5
20260501232124 16 209 1.6 6.4 0.00 0.00 0.00 33 1018.5
20260501231622 16 340 1.6 4.8 0.00 0.00 0.00 32 1018.4
20260501231120 15 177 4.8 11.3 0.00 0.00 0.00 35 1018.4
20260501230618 15 244 6.4 9.7 0.00 0.00 0.00 34 1018.5
20260501230116 16 237 6.4 6.4 0.00 0.00 0.00 35 1018.4
20260501225613 16 274 8.0 12.9 0.00 0.00 0.00 35 1018.4
20260501225109 16 190 3.2 6.4 0.00 0.00 0.00 33 1018.5
20260501224607 15 261 4.8 8.0 0.00 0.00 0.00 33 1018.7
20260501224103 16 241 9.7 9.7 0.00 0.00 0.00 36 1018.5
20260501223600 15 270 4.8 12.9 0.00 0.00 0.00 32 1018.5
20260501223056 15 254 0.0 14.5 0.00 0.00 0.00 38 1018.5
20260501222553 15 328 0.0 8.0 0.00 0.00 0.00 33 1018.7
20260501222050 15 270 4.8 12.9 0.00 0.00 0.00 34 1018.8
20260501221546 15 322 9.7 14.5 0.00 0.00 0.00 36 1018.8
20260501221044 16 272 9.7 11.3 0.00 0.00 0.00 38 1018.7
20260501220542 15 200 0.0 9.7 0.00 0.00 0.00 33 1019.0
20260501220038 15 237 6.4 16.1 0.00 0.00 0.00 34 1018.9
20260501215534 16 304 3.2 11.3 0.00 0.00 0.00 37 1018.8
20260501215030 15 320 4.8 8.0 0.00 0.00 0.00 35 1018.9
20260501214525 14 243 8.0 17.7 0.00 0.00 0.00 35 1019.0
20260501214021 15 245 14.5 19.3 0.00 0.00 0.00 36 1019.0
20260501213519 15 290 4.8 14.5 0.00 0.00 0.00 37 1019.0
20260501213015 15 243 4.8 9.7 0.00 0.00 0.00 36 1019.3
20260501212511 15 260 3.2 14.5 0.00 0.00 0.00 37 1019.1
20260501212008 16 293 4.8 8.0 0.00 0.00 0.00 40 1019.1
20260501211505 15 231 12.9 17.7 0.00 0.00 0.00 38 1019.0
20260501211003 14 216 8.0 17.7 0.00 0.00 0.00 35 1019.0
20260501210458 15 300 4.8 16.1 0.00 0.00 0.00 38 1019.3
20260501205955 15 237 4.8 12.9 0.00 0.00 0.00 36 1019.1
20260501205452 15 270 8.0 24.1 0.00 0.00 0.00 37 1019.3
20260501204949 15 279 12.9 12.9 0.00 0.00 0.00 39 1019.3
20260501204445 14 229 4.8 14.5 0.00 0.00 0.00 38 1019.1
20260501203942 13 239 8.0 14.5 0.00 0.00 0.00 38 1019.3
20260501203439 15 346 3.2 9.7 0.00 0.00 0.00 39 1019.3
20260501202936 15 286 6.4 9.7 0.00 0.00 0.00 37 1019.3
20260501202433 14 277 12.9 14.5 0.00 0.00 0.00 40 1019.1
20260501201929 14 346 4.8 11.3 0.00 0.00 0.00 38 1019.3
20260501201426 15 324 3.2 11.3 0.00 0.00 0.00 42 1019.3
20260501200923 15 317 6.4 9.7 0.00 0.00 0.00 41 1019.4
20260501200420 13 142 8.0 11.3 0.00 0.00 0.00 39 1019.5
20260501195918 13 251 1.6 11.3 0.00 0.00 0.00 37 1019.6
20260501195415 13 21 8.0 9.7 0.00 0.00 0.00 37 1019.5
20260501194910 13 267 4.8 14.5 0.00 0.00 0.00 40 1019.4
20260501194406 13 287 9.7 14.5 0.00 0.00 0.00 39 1019.5
20260501193902 13 236 6.4 8.0 0.00 0.00 0.00 44 1019.4
20260501193401 13 233 6.4 9.7 0.00 0.00 0.00 39 1019.4
20260501192858 13 236 14.5 14.5 0.00 0.00 0.00 40 1019.4
20260501192355 13 249 8.0 12.9 0.00 0.00 0.00 42 1019.4
20260501191851 13 273 6.4 16.1 0.00 0.00 0.00 40 1019.8
20260501191348 13 188 0.0 9.7 0.00 0.00 0.00 42 1019.6
20260501190845 12 22 4.8 9.7 0.00 0.00 0.00 37 1019.6